Location: Mainz-Finthen
(49.9906°N, 8.1713°E)
Time: 02:02:53
(UTC+00:00)

BlueWalker 3 - Pass Details

Date: 06 December 2022
Orbit: 499 x 517 km, 53.2° (Epoch: 26 January)

Event Time Altitude Azimuth Distance (km) Brightness Sun altitude
Rises 17:55:02 0° 292° (WNW) 2,631 6.6 -22.8°
Reaches altitude 10° 17:57:15 10° 291° (WNW) 1,739 5.5 -23.2°
Enters shadow 18:00:49 68° 257° (WSW) 551 2.2 -23.8°
